Time,TemperatureF,DewpointF,PressureIn,WindDirection,WindDirectionDegrees,WindSpeedMPH,WindSpeedGustMPH,Humidity,HourlyPrecipIn,Conditions,Clouds,dailyrainin,SoftwareType,DateUTC
2014-01-08 00:43:00,6.0,-99.9,30.39,North,-999,-999.0,-999.0,-999,0.00,,,-99.99,,2014-01-08 05:43:00,
2014-01-08 00:52:00,5.0,-99.9,30.41,North,-999,-999.0,-999.0,-999,0.00,,,-99.99,,2014-01-08 05:52:00,
2014-01-08 01:43:00,5.0,-99.9,30.41,North,-999,-999.0,-999.0,-999,0.00,,,-99.99,,2014-01-08 06:43:00,
2014-01-08 01:52:00,5.0,-99.9,30.43,North,-999,-999.0,-999.0,-999,0.00,,,-99.99,,2014-01-08 06:52:00,
2014-01-08 02:42:00,5.0,-99.9,30.43,North,-999,-999.0,-999.0,-999,0.00,,,-99.99,,2014-01-08 07:42:00,
2014-01-08 02:52:00,5.0,-99.9,30.45,North,-999,-999.0,-999.0,-999,0.00,,,-99.99,,2014-01-08 07:52:00,
2014-01-08 03:43:00,5.0,-99.9,30.45,North,-999,-999.0,-999.0,-999,0.00,,,-99.99,,2014-01-08 08:43:00,
2014-01-08 03:52:00,5.0,-99.9,30.46,North,-999,-999.0,-999.0,-999,0.00,,,-99.99,,2014-01-08 08:52:00,
2014-01-08 04:44:00,5.0,-99.9,30.46,North,-999,-999.0,-999.0,-999,0.00,,,-99.99,,2014-01-08 09:44:00,
2014-01-08 04:52:00,4.0,-99.9,30.47,North,-999,-999.0,-999.0,-999,0.00,,,-99.99,,2014-01-08 09:52:00,
2014-01-08 05:43:00,4.0,-99.9,30.47,North,-999,-999.0,-999.0,-999,0.00,,,-99.99,,2014-01-08 10:43:00,
2014-01-08 05:52:00,4.0,-99.9,30.45,North,-999,-999.0,-999.0,-999,0.00,,,-99.99,,2014-01-08 10:52:00,
2014-01-08 06:43:00,4.0,-99.9,30.45,North,-999,-999.0,-999.0,-999,0.00,,,-99.99,,2014-01-08 11:43:00,
2014-01-08 06:52:00,5.0,-99.9,30.49,North,-999,-999.0,-999.0,-999,0.00,,,-99.99,,2014-01-08 11:52:00,
2014-01-08 07:43:00,5.0,-99.9,30.49,North,-999,-999.0,-999.0,-999,0.00,,,-99.99,,2014-01-08 12:43:00,
2014-01-08 07:52:00,5.0,-99.9,30.53,North,-999,-999.0,-999.0,-999,0.00,,,-99.99,,2014-01-08 12:52:00,
2014-01-08 08:42:00,5.0,-99.9,30.53,North,-999,-999.0,-999.0,-999,0.00,,,-99.99,,2014-01-08 13:42:00,
2014-01-08 08:52:00,8.0,-99.9,30.55,North,-999,-999.0,-999.0,-999,0.00,,,-99.99,,2014-01-08 13:52:00,
2014-01-08 09:43:00,8.0,-99.9,30.55,North,-999,-999.0,-999.0,-999,0.00,,,-99.99,,2014-01-08 14:43:00,
2014-01-08 09:52:00,11.0,-99.9,30.57,North,-999,-999.0,-999.0,-999,0.00,,,-99.99,,2014-01-08 14:52:00,
2014-01-08 10:43:00,11.0,-99.9,30.57,North,-999,-999.0,-999.0,-999,0.00,,,-99.99,,2014-01-08 15:43:00,
2014-01-08 10:52:00,13.0,-99.9,30.55,North,-999,-999.0,-999.0,-999,0.00,,,-99.99,,2014-01-08 15:52:00,
2014-01-08 11:43:00,13.0,-99.9,30.55,North,-999,-999.0,-999.0,-999,0.00,,,-99.99,,2014-01-08 16:43:00,
2014-01-08 11:52:00,14.0,-99.9,30.51,North,-999,-999.0,-999.0,-999,0.00,,,-99.99,,2014-01-08 16:52:00,
2014-01-08 12:43:00,14.0,-99.9,30.51,North,-999,-999.0,-999.0,-999,0.00,,,-99.99,,2014-01-08 17:43:00,
2014-01-08 12:52:00,17.0,-99.9,30.48,North,-999,-999.0,-999.0,-999,0.00,,,-99.99,,2014-01-08 17:52:00,
2014-01-08 13:42:00,17.0,-99.9,30.48,North,-999,-999.0,-999.0,-999,0.00,,,-99.99,,2014-01-08 18:42:00,
2014-01-08 13:52:00,19.0,-99.9,30.48,North,-999,-999.0,-999.0,-999,0.00,,,-99.99,,2014-01-08 18:52:00,
2014-01-08 14:43:00,19.0,-99.9,30.48,North,-999,-999.0,-999.0,-999,0.00,,,-99.99,,2014-01-08 19:43:00,
2014-01-08 14:52:00,20.0,-99.9,30.48,North,-999,-999.0,-999.0,-999,0.00,,,-99.99,,2014-01-08 19:52:00,
2014-01-08 15:42:00,20.0,-99.9,30.48,North,-999,-999.0,-999.0,-999,0.00,,,-99.99,,2014-01-08 20:42:00,
2014-01-08 15:52:00,20.0,-99.9,30.48,North,-999,-999.0,-999.0,-999,0.00,,,-99.99,,2014-01-08 20:52:00,
2014-01-08 16:43:00,20.0,-99.9,30.48,North,-999,-999.0,-999.0,-999,0.00,,,-99.99,,2014-01-08 21:43:00,
2014-01-08 16:52:00,19.0,-99.9,30.50,North,-999,-999.0,-999.0,-999,0.00,,,-99.99,,2014-01-08 21:52:00,
2014-01-08 17:43:00,19.0,-99.9,30.50,North,-999,-999.0,-999.0,-999,0.00,,,-99.99,,2014-01-08 22:43:00,
2014-01-08 17:52:00,17.0,-99.9,30.50,North,-999,-999.0,-999.0,-999,0.00,,,-99.99,,2014-01-08 22:52:00,
2014-01-08 18:42:00,17.0,-99.9,30.50,North,-999,-999.0,-999.0,-999,0.00,,,-99.99,,2014-01-08 23:42:00,
2014-01-08 18:52:00,17.0,-99.9,30.53,North,-999,-999.0,-999.0,-999,0.00,,,-99.99,,2014-01-08 23:52:00,
2014-01-08 19:42:00,17.0,-99.9,30.53,North,-999,-999.0,-999.0,-999,0.00,,,-99.99,,2014-01-09 00:42:00,
2014-01-08 19:52:00,16.0,-99.9,30.53,North,-999,-999.0,-999.0,-999,0.00,,,-99.99,,2014-01-09 00:52:00,
2014-01-08 20:42:00,16.0,-99.9,30.53,North,-999,-999.0,-999.0,-999,0.00,,,-99.99,,2014-01-09 01:42:00,
2014-01-08 20:52:00,16.0,-99.9,30.55,North,-999,-999.0,-999.0,-999,0.00,,,-99.99,,2014-01-09 01:52:00,
2014-01-08 22:43:00,17.0,-99.9,30.53,North,-999,-999.0,-999.0,-999,0.00,,,-99.99,,2014-01-09 03:43:00,
2014-01-08 22:52:00,17.0,-99.9,30.54,North,-999,-999.0,-999.0,-999,0.00,,,-99.99,,2014-01-09 03:52:00,
2014-01-08 23:43:00,17.0,-99.9,30.54,North,-999,-999.0,-999.0,-999,0.00,,,-99.99,,2014-01-09 04:43:00,
2014-01-08 23:52:00,17.0,-99.9,30.52,North,-999,-999.0,-999.0,-999,0.00,,,-99.99,,2014-01-09 04:52:00,